Wind_Speed
51 51 52 53 54 53 52 52 53 51 50 51 53 53 54 55 54 54 54 55 56 55 54 54 54 53 53 52 52 52 50 49 48 47 48 47 46 46
50 50 50 50 50 50 50 50 50 49 48 47 49 51 52 51 51 51 51 52 53 54 54 54 53 52 53 53 53 51 51 49 48 48 49 47 47 47
50 49 49 49 49 48 48 47 46 46 46 43 44 46 48 48 48 49 48 49 49 50 50 51 51 51 52 52 52 51 49 49 49 48 46 47 48 47
49 49 48 48 47 47 47 46 45 44 44 42 41 42 44 45 46 47 47 47 46 46 46 48 49 49 50 50 50 49 49 49 48 47 46 46 47 47
49 48 47 47 46 46 45 44 43 42 41 41 40 41 42 43 44 44 45 44 45 44 44 46 47 48 49 49 48 48 48 47 47 47 47 46 47 47
47 46 46 45 45 45 44 43 42 41 40 40 39 40 40 39 40 41 42 43 43 42 43 45 45 45 47 47 47 47 47 47 46 45 46 46 46 47
44 44 44 44 43 43 42 41 40 40 39 38 38 39 38 37 39 40 41 42 41 41 41 42 42 42 44 44 45 44 45 45 44 43 44 44 44 44
41 40 40 40 39 39 40 39 39 38 37 36 36 37 36 36 37 39 40 40 39 38 38 38 39 39 40 41 41 41 41 42 41 42 42 43 42 41
37 36 35 35 36 36 37 37 36 35 35 34 34 34 33 33 34 36 36 36 37 36 36 35 36 36 36 37 38 38 39 41 40 40 41 40 40 40
32 32 32 32 32 32 33 33 33 33 33 33 33 32 32 32 32 32 33 32 33 34 35 35 35 35 35 36 36 36 36 37 37 37 38 38 38 38
29 28 29 29 29 29 29 30 30 31 31 31 31 31 30 30 30 30 30 30 32 32 32 31 32 34 34 33 32 33 34 34 35 35 36 36 36 36
27 27 27 27 28 28 28 29 29 28 28 30 30 30 29 28 28 28 27 27 27 28 28 28 29 30 31 30 29 30 31 31 31 32 33 33 33 33
26 24 25 26 25 25 25 26 26 25 25 27 27 28 28 27 26 27 26 26 25 25 26 26 26 27 27 27 26 28 29 29 29 30 30 30 30 29
22 21 21 20 20 20 20 21 22 23 23 23 24 25 25 24 24 25 25 26 25 25 25 26 26 25 25 25 25 25 26 26 27 28 29 29 27 26
21 19 18 17 16 17 17 18 19 20 21 21 22 23 23 22 23 23 24 24 24 25 25 25 25 24 25 25 24 24 24 24 25 26 26 25 24 23
19 17 16 15 14 15 16 17 18 19 20 20 21 21 21 21 21 21 22 22 22 23 24 24 23 23 22 22 22 21 22 22 22 23 22 22 21 20
17 15 13 13 13 14 16 17 18 18 19 19 19 19 20 19 19 20 20 20 20 21 21 21 21 20 19 19 19 19 19 19 19 19 18 18 18 18
16 14 12 11 12 13 14 15 17 17 17 17 18 18 18 18 18 18 18 18 18 19 19 19 18 18 17 17 17 18 17 17 16 16 16 16 15 16
14 12 11 10 11 12 13 13 15 15 15 15 15 16 17 18 18 18 18 18 19 18 18 18 17 17 16 16 15 16 14 14 13 13 13 14 14 14
12 11 10 11 11 11 12 13 14 14 14 14 14 15 15 16 16 16 16 16 16 16 16 16 16 15 14 13 12 12 11 11 11 11 11 11 11 11
10 10 10 10 11 11 11 12 14 14 14 13 13 14 14 14 14 14 15 15 15 15 15 15 14 13 12 11 10 10 10 10 9 8 8 8 8 9
10 9 9 9 10 10 11 11 12 13 13 12 12 12 12 12 13 13 13 13 14 14 15 15 14 13 11 10 9 10 10 9 8 7 7 7 7 7
9 8 8 8 8 9 10 10 10 11 11 12 12 12 11 12 12 13 13 14 14 15 15 14 13 12 11 10 9 9 8 8 8 7 6 6 6 5
Wind_Direction
279 278 278 276 274 273 272 271 268 265 264 263 260 259 258 257 258 256 254 253 253 253 253 253 253 254 255 256 257 259 262 264 266 270 273 276 279 284
279 278 278 276 274 272 271 270 268 266 265 263 260 258 256 255 255 253 252 252 252 252 253 252 252 252 254 255 256 258 260 262 265 270 273 275 277 283
279 278 278 277 275 273 271 270 268 267 266 263 260 258 255 253 251 250 250 251 251 252 254 253 252 252 253 253 254 256 259 262 265 269 273 276 279 282
279 278 276 276 274 272 270 269 267 267 266 263 260 258 255 252 251 250 250 249 250 252 255 255 252 251 251 252 252 255 258 261 264 268 273 275 280 282
280 278 275 274 273 271 268 267 266 267 266 263 261 256 253 252 251 250 249 249 249 253 256 254 252 251 250 250 251 254 256 260 264 268 271 273 278 281
281 277 275 274 272 268 266 264 264 264 264 262 259 255 252 251 250 249 249 248 249 252 254 253 252 251 251 250 252 254 257 261 264 268 270 272 276 280
282 279 276 273 269 266 264 263 263 262 262 260 257 253 253 252 249 247 248 248 249 252 253 254 253 253 253 252 252 254 256 260 263 267 269 272 276 281
285 280 275 271 267 265 263 261 260 261 260 259 255 253 252 250 248 246 248 249 250 251 252 253 254 255 255 254 254 255 257 259 262 265 269 273 277 280
285 279 273 268 266 265 262 259 258 258 258 257 253 250 249 248 247 246 247 249 250 251 252 252 252 253 254 254 253 256 257 259 261 265 270 274 277 280
284 277 272 268 267 265 260 256 255 254 255 254 250 247 247 246 244 245 245 247 250 252 253 252 251 251 252 254 254 255 258 260 262 266 270 273 276 279
284 277 272 269 267 264 257 253 252 252 252 249 246 246 245 244 244 245 245 246 249 250 250 252 252 251 252 254 255 256 258 261 264 267 270 272 275 278
284 278 273 269 267 262 256 253 252 251 248 245 244 245 244 244 245 245 244 243 246 245 246 250 251 251 251 250 252 256 257 259 263 267 270 271 275 277
286 279 272 268 265 258 255 251 250 246 242 243 244 243 241 242 242 241 242 241 243 244 247 250 250 250 251 248 250 255 257 259 263 267 270 272 275 276
288 279 272 265 260 256 253 249 245 242 238 240 240 241 240 241 240 239 240 240 241 242 247 249 248 250 252 249 250 254 258 261 266 269 271 273 276 275
288 280 274 264 260 255 251 247 243 239 237 238 239 236 236 237 239 239 240 239 238 241 245 246 247 249 248 249 250 254 259 264 267 269 272 275 275 274
289 284 276 265 257 247 243 242 241 238 240 241 235 232 234 237 238 236 236 235 236 241 244 244 244 243 244 245 247 255 260 264 267 270 271 272 272 273
284 286 279 268 256 245 244 240 239 241 242 236 230 230 232 234 233 231 232 232 234 239 242 242 240 241 244 246 252 258 262 265 267 267 267 269 271 273
288 284 281 267 255 248 245 241 239 236 232 226 228 230 230 230 230 231 233 231 235 239 241 238 238 238 240 245 252 257 260 263 262 261 264 269 274 279
286 286 280 268 259 254 246 241 236 231 225 223 228 228 225 227 230 233 236 233 234 237 238 236 235 235 238 244 251 255 257 257 257 260 265 269 276 281
283 282 277 268 258 252 246 241 237 232 228 226 226 222 222 225 228 231 231 229 231 234 232 227 228 230 236 243 247 249 251 250 251 255 262 267 272 285
279 274 272 268 258 247 242 240 238 234 226 224 222 220 220 221 222 224 224 225 224 223 220 217 219 222 228 234 240 242 240 239 240 250 262 268 280 290
271 267 264 262 254 245 240 238 232 226 224 224 218 216 219 219 216 214 215 216 214 213 212 213 214 219 226 230 234 232 229 230 233 245 253 264 282 293
269 264 259 259 256 244 234 231 224 219 222 218 213 213 213 210 208 207 205 205 207 208 210 212 214 218 223 223 221 220 223 225 227 234 248 268 283 292
Height
5571 5569 5568 5567 5566 5567 5566 5567 5569 5571 5576 5580 5581 5582 5583 5587 5591 5594 5598 5603 5607 5612 5616 5621 5625 5629 5632 5635 5639 5642 5644 5646 5647 5647 5646 5646 5644 5643
5556 5555 5554 5552 5552 5551 5552 5553 5553 5555 5559 5564 5566 5567 5568 5571 5575 5579 5583 5588 5593 5597 5602 5606 5610 5615 5618 5622 5625 5628 5631 5633 5634 5635 5634 5634 5633 5631
5541 5540 5539 5538 5537 5537 5537 5538 5539 5540 5543 5549 5551 5553 5555 5558 5561 5565 5570 5575 5580 5584 5588 5592 5596 5600 5604 5608 5612 5615 5618 5621 5622 5623 5622 5622 5621 5620
5527 5525 5525 5523 5523 5523 5524 5525 5526 5528 5530 5534 5538 5539 5542 5545 5548 5553 5557 5562 5568 5572 5575 5579 5583 5587 5591 5595 5599 5603 5606 5608 5610 5611 5611 5612 5611 5609
5511 5510 5510 5509 5509 5509 5510 5512 5514 5515 5517 5520 5524 5527 5530 5533 5536 5541 5545 5550 5555 5559 5562 5566 5570 5574 5578 5582 5586 5590 5593 5596 5598 5600 5600 5599 5599 5597
5496 5495 5495 5495 5495 5496 5497 5500 5501 5503 5505 5508 5511 5515 5518 5521 5525 5530 5534 5539 5544 5548 5551 5554 5558 5561 5565 5570 5574 5578 5581 5584 5586 5588 5588 5588 5587 5586
5482 5481 5481 5481 5481 5482 5484 5487 5489 5492 5494 5497 5500 5504 5508 5511 5515 5520 5525 5529 5534 5537 5540 5543 5547 5551 5554 5558 5562 5565 5569 5572 5574 5575 5576 5576 5576 5575
5469 5468 5468 5468 5469 5470 5472 5474 5478 5481 5484 5486 5490 5494 5499 5502 5506 5510 5514 5519 5524 5528 5529 5533 5536 5540 5544 5548 5552 5555 5558 5561 5562 5564 5565 5565 5565 5564
5457 5456 5456 5457 5458 5459 5461 5464 5467 5470 5474 5477 5481 5486 5489 5493 5496 5501 5505 5509 5514 5517 5520 5524 5527 5531 5534 5538 5541 5544 5547 5550 5552 5554 5555 5555 5555 5554
5447 5446 5446 5448 5448 5449 5451 5455 5458 5462 5465 5468 5472 5476 5480 5484 5487 5491 5495 5500 5504 5508 5511 5515 5519 5522 5525 5528 5531 5534 5537 5539 5542 5543 5545 5545 5545 5545
5439 5439 5439 5439 5440 5441 5443 5446 5450 5454 5456 5459 5464 5468 5471 5475 5478 5482 5487 5491 5496 5500 5503 5507 5510 5513 5516 5519 5522 5525 5528 5530 5533 5534 5535 5536 5536 5535
5433 5432 5432 5431 5432 5433 5435 5439 5443 5446 5449 5452 5456 5459 5463 5467 5471 5475 5479 5484 5488 5493 5496 5500 5503 5505 5509 5512 5514 5517 5520 5522 5524 5526 5527 5527 5527 5526
5426 5425 5425 5425 5426 5427 5429 5432 5436 5439 5442 5446 5449 5453 5457 5461 5464 5469 5473 5477 5482 5487 5490 5493 5496 5499 5502 5505 5507 5510 5512 5515 5517 5518 5518 5519 5519 5519
5420 5420 5419 5419 5420 5422 5424 5427 5430 5433 5437 5440 5444 5448 5451 5455 5458 5463 5466 5471 5475 5480 5484 5487 5490 5493 5496 5499 5502 5504 5506 5508 5509 5510 5511 5511 5511 5511
5415 5415 5414 5415 5416 5418 5420 5422 5425 5428 5432 5435 5439 5443 5446 5449 5453 5457 5461 5465 5469 5474 5477 5480 5484 5487 5490 5493 5496 5498 5500 5501 5502 5503 5504 5504 5505 5505
5412 5411 5411 5412 5413 5415 5417 5419 5422 5425 5427 5431 5434 5437 5441 5444 5448 5452 5456 5460 5464 5468 5471 5475 5478 5481 5484 5487 5490 5492 5494 5495 5496 5497 5498 5498 5499 5499
5409 5409 5409 5409 5410 5412 5414 5416 5418 5420 5423 5426 5429 5433 5437 5440 5444 5448 5451 5455 5459 5463 5466 5469 5472 5475 5478 5481 5484 5486 5488 5489 5491 5491 5492 5493 5494 5494
5406 5406 5406 5406 5407 5409 5411 5412 5415 5417 5419 5422 5426 5429 5433 5436 5440 5444 5447 5451 5454 5458 5461 5465 5468 5471 5474 5476 5479 5481 5482 5484 5485 5487 5488 5489 5489 5489
5404 5403 5403 5404 5405 5406 5407 5409 5411 5414 5416 5419 5422 5426 5429 5432 5436 5439 5442 5446 5450 5453 5457 5460 5463 5466 5469 5472 5474 5476 5478 5480 5481 5482 5484 5484 5484 5485
5401 5401 5401 5402 5402 5403 5405 5407 5409 5411 5414 5416 5419 5422 5425 5428 5432 5435 5438 5442 5446 5449 5452 5456 5459 5463 5466 5469 5470 5472 5474 5476 5478 5479 5480 5480 5480 5480
5399 5399 5399 5399 5400 5401 5402 5404 5406 5409 5411 5414 5416 5419 5422 5425 5428 5432 5435 5439 5442 5446 5449 5453 5456 5459 5462 5465 5467 5469 5471 5473 5475 5476 5476 5477 5477 5477
5396 5396 5397 5397 5397 5398 5400 5402 5404 5406 5409 5411 5414 5417 5420 5423 5426 5429 5433 5436 5440 5444 5447 5450 5454 5457 5460 5462 5465 5467 5468 5470 5472 5473 5474 5475 5476 5476
5394 5394 5394 5395 5395 5396 5398 5399 5401 5404 5407 5409 5412 5415 5417 5420 5424 5427 5431 5434 5438 5442 5445 5449 5452 5455 5457 5460 5462 5464 5466 5468 5470 5471 5472 5473 5473 5473